iso_date,epoch_date,Year,Hour,Min,DOY,POS_DOY,Lat,Lon,BP,Ts,Ta,has_bp,has_ts,has_ta,BuoyID,Buoy_Type,Buoy_Owner,Logistics,Hemisphere
2016-04-13T05:29:45Z,1460525386,2016,5,30,104.229,104.229,74.42683,-102.72883,1019.2,-13.95,-999.0,yes,yes,no,300234063586960,ICET,YorkU,unknown,North
2016-04-13T05:39:50Z,1460525990,2016,5,40,104.236,104.236,74.42683,-102.72884,1019.3,-14.15,-999.0,yes,yes,no,300234063586960,ICET,YorkU,unknown,North
2016-04-13T05:49:55Z,1460526595,2016,5,50,104.243,104.243,74.42683,-102.72882,1019.3,-14.3,-999.0,yes,yes,no,300234063586960,ICET,YorkU,unknown,North
2016-04-13T06:00:00Z,1460527200,2016,6,0,104.25,104.25,74.42682,-102.72885,1019.5,-14.45,-999.0,yes,yes,no,300234063586960,ICET,YorkU,unknown,North
2016-04-13T07:00:28Z,1460530829,2016,7,0,104.292,104.292,74.42688,-102.72885,1019.8,-15.5,-999.0,yes,yes,no,300234063586960,ICET,YorkU,unknown,North
2016-04-13T07:59:31Z,1460534371,2016,8,0,104.333,104.333,74.42683,-102.72883,1020.5,-16.25,-999.0,yes,yes,no,300234063586960,ICET,YorkU,unknown,North
2016-04-13T09:00:00Z,1460538000,2016,9,0,104.375,104.375,74.42692,-102.72887,1021.1,-16.8,-999.0,yes,yes,no,300234063586960,ICET,YorkU,unknown,North
2016-04-13T10:00:28Z,1460541629,2016,10,0,104.417,104.417,74.4269,-102.72895,1021.6,-17.3,-999.0,yes,yes,no,300234063586960,ICET,YorkU,unknown,North
2016-04-13T10:59:31Z,1460545171,2016,11,0,104.458,104.458,74.42683,-102.72887,1022.2,-17.85,-999.0,yes,yes,no,300234063586960,ICET,YorkU,unknown,North
2016-04-13T12:00:00Z,1460548800,2016,12,0,104.5,104.5,74.42683,-102.72881,1022.7,-18.5,-999.0,yes,yes,no,300234063586960,ICET,YorkU,unknown,North
2016-04-13T13:00:28Z,1460552429,2016,13,0,104.542,104.542,74.42686,-102.72888,1023.4,-18.9,-999.0,yes,yes,no,300234063586960,ICET,YorkU,unknown,North
2016-04-13T13:59:31Z,1460555971,2016,14,0,104.583,104.583,74.42684,-102.72887,1023.7,-18.7,-999.0,yes,yes,no,300234063586960,ICET,YorkU,unknown,North
2016-04-13T15:00:00Z,1460559600,2016,15,0,104.625,104.625,74.42683,-102.72887,1024.0,-17.9,-999.0,yes,yes,no,300234063586960,ICET,YorkU,unknown,North
2016-04-13T16:00:28Z,1460563229,2016,16,0,104.667,104.667,74.4269,-102.72895,1024.4,-16.4,-999.0,yes,yes,no,300234063586960,ICET,YorkU,unknown,North
2016-04-13T16:59:31Z,1460566771,2016,17,0,104.708,104.708,74.42683,-102.72885,1024.8,-14.5,-999.0,yes,yes,no,300234063586960,ICET,YorkU,unknown,North
2016-04-13T18:00:00Z,1460570400,2016,18,0,104.75,104.75,74.42683,-102.72883,1025.4,-12.45,-999.0,yes,yes,no,300234063586960,ICET,YorkU,unknown,North
2016-04-13T19:00:28Z,1460574029,2016,19,0,104.792,104.792,74.4269,-102.72907,1025.8,-10.4,-999.0,yes,yes,no,300234063586960,ICET,YorkU,unknown,North
2016-04-14T00:00:00Z,1460592000,2016,0,0,105.0,105.0,74.42683,-102.72882,1027.4,-5.85,-999.0,yes,yes,no,300234063586960,ICET,YorkU,unknown,North
2016-04-14T06:00:00Z,1460613600,2016,6,0,105.25,105.25,74.42682,-102.72882,1028.2,-15.25,-999.0,yes,yes,no,300234063586960,ICET,YorkU,unknown,North
2016-04-14T12:00:00Z,1460635200,2016,12,0,105.5,105.5,74.42682,-102.72887,1028.4,-18.3,-999.0,yes,yes,no,300234063586960,ICET,YorkU,unknown,North
2016-04-14T18:00:00Z,1460656800,2016,18,0,105.75,105.75,74.42683,-102.72884,1027.9,-13.45,-999.0,yes,yes,no,300234063586960,ICET,YorkU,unknown,North
2016-04-15T00:00:00Z,1460678400,2016,0,0,106.0,106.0,74.42683,-102.72883,1027.0,-8.9,-999.0,yes,yes,no,300234063586960,ICET,YorkU,unknown,North
2016-04-15T06:00:00Z,1460700000,2016,6,0,106.25,106.25,74.42683,-102.72883,1026.1,-14.9,-999.0,yes,yes,no,300234063586960,ICET,YorkU,unknown,North
2016-04-15T12:00:00Z,1460721600,2016,12,0,106.5,106.5,74.42683,-102.7289,1025.5,-17.6,-999.0,yes,yes,no,300234063586960,ICET,YorkU,unknown,North
2016-04-15T18:00:00Z,1460743200,2016,18,0,106.75,106.75,74.42683,-102.72884,1025.3,-10.9,-999.0,yes,yes,no,300234063586960,ICET,YorkU,unknown,North
2016-04-16T00:00:00Z,1460764800,2016,0,0,107.0,107.0,74.42684,-102.72881,1025.2,-4.7,-999.0,yes,yes,no,300234063586960,ICET,YorkU,unknown,North
2016-04-16T06:00:00Z,1460786400,2016,6,0,107.25,107.25,74.42683,-102.72881,1025.8,-17.1,-999.0,yes,yes,no,300234063586960,ICET,YorkU,unknown,North
2016-04-16T12:00:00Z,1460808000,2016,12,0,107.5,107.5,74.42683,-102.72885,1026.6,-23.65,-999.0,yes,yes,no,300234063586960,ICET,YorkU,unknown,North
2016-04-16T18:00:00Z,1460829600,2016,18,0,107.75,107.75,74.42684,-102.72881,1027.3,-13.9,-999.0,yes,yes,no,300234063586960,ICET,YorkU,unknown,North
2016-04-17T00:00:00Z,1460851200,2016,0,0,108.0,108.0,74.42683,-102.7288,1027.8,-6.65,-999.0,yes,yes,no,300234063586960,ICET,YorkU,unknown,North
2016-04-17T06:00:00Z,1460872800,2016,6,0,108.25,108.25,74.42683,-102.7288,1027.9,-18.3,-999.0,yes,yes,no,300234063586960,ICET,YorkU,unknown,North
2016-04-17T12:00:00Z,1460894400,2016,12,0,108.5,108.5,74.42684,-102.72878,1028.7,-23.8,-999.0,yes,yes,no,300234063586960,ICET,YorkU,unknown,North
2016-04-17T18:00:00Z,1460916000,2016,18,0,108.75,108.75,74.42683,-102.72881,1028.7,-13.15,-999.0,yes,yes,no,300234063586960,ICET,YorkU,unknown,North
2016-04-18T00:00:00Z,1460937600,2016,0,0,109.0,109.0,74.42685,-102.72879,1028.1,-4.2,-999.0,yes,yes,no,300234063586960,ICET,YorkU,unknown,North
2016-04-18T06:00:00Z,1460959200,2016,6,0,109.25,109.25,74.42683,-102.72881,1027.2,-16.75,-999.0,yes,yes,no,300234063586960,ICET,YorkU,unknown,North
2016-04-18T12:00:00Z,1460980800,2016,12,0,109.5,109.5,74.42683,-102.72883,1026.9,-24.1,-999.0,yes,yes,no,300234063586960,ICET,YorkU,unknown,North
2016-04-18T18:00:00Z,1461002400,2016,18,0,109.75,109.75,74.42683,-102.72879,1026.6,-14.7,-999.0,yes,yes,no,300234063586960,ICET,YorkU,unknown,North
2016-04-19T00:00:00Z,1461024000,2016,0,0,110.0,110.0,74.42683,-102.72875,1026.7,-7.3,-999.0,yes,yes,no,300234063586960,ICET,YorkU,unknown,North
2016-04-19T06:00:00Z,1461045600,2016,6,0,110.25,110.25,74.42683,-102.72884,1026.0,-17.2,-999.0,yes,yes,no,300234063586960,ICET,YorkU,unknown,North
2016-04-19T12:00:00Z,1461067200,2016,12,0,110.5,110.5,74.42682,-102.7288,1024.8,-22.6,-999.0,yes,yes,no,300234063586960,ICET,YorkU,unknown,North
2016-04-19T18:00:00Z,1461088800,2016,18,0,110.75,110.75,74.42685,-102.72877,1022.4,-16.75,-999.0,yes,yes,no,300234063586960,ICET,YorkU,unknown,North
2016-04-20T00:00:00Z,1461110400,2016,0,0,111.0,111.0,74.42683,-102.7288,1021.7,-8.6,-999.0,yes,yes,no,300234063586960,ICET,YorkU,unknown,North
2016-04-20T06:00:00Z,1461132000,2016,6,0,111.25,111.25,74.42683,-102.72879,1020.1,-17.2,-999.0,yes,yes,no,300234063586960,ICET,YorkU,unknown,North
2016-04-20T12:00:00Z,1461153600,2016,12,0,111.5,111.5,74.42683,-102.72877,1021.4,-21.05,-999.0,yes,yes,no,300234063586960,ICET,YorkU,unknown,North
2016-04-20T18:00:00Z,1461175200,2016,18,0,111.75,111.75,74.42683,-102.72879,1024.3,-16.45,-999.0,yes,yes,no,300234063586960,ICET,YorkU,unknown,North
2016-04-21T00:00:00Z,1461196800,2016,0,0,112.0,112.0,74.42684,-102.72877,1027.1,-7.6,-999.0,yes,yes,no,300234063586960,ICET,YorkU,unknown,North
2016-04-21T06:00:00Z,1461218400,2016,6,0,112.25,112.25,74.42683,-102.72879,1027.1,-15.25,-999.0,yes,yes,no,300234063586960,ICET,YorkU,unknown,North
2016-04-21T12:00:00Z,1461240000,2016,12,0,112.5,112.5,74.42683,-102.72881,1028.4,-20.95,-999.0,yes,yes,no,300234063586960,ICET,YorkU,unknown,North
2016-04-21T18:00:00Z,1461261600,2016,18,0,112.75,112.75,74.42684,-102.72879,1028.5,-16.2,-999.0,yes,yes,no,300234063586960,ICET,YorkU,unknown,North
2016-04-22T00:00:00Z,1461283200,2016,0,0,113.0,113.0,74.42685,-102.72881,1028.4,-8.15,-999.0,yes,yes,no,300234063586960,ICET,YorkU,unknown,North
2016-04-22T06:00:00Z,1461304800,2016,6,0,113.25,113.25,74.42683,-102.72879,1026.8,-15.4,-999.0,yes,yes,no,300234063586960,ICET,YorkU,unknown,North
2016-04-22T12:00:00Z,1461326400,2016,12,0,113.5,113.5,74.42683,-102.72878,1026.2,-19.8,-999.0,yes,yes,no,300234063586960,ICET,YorkU,unknown,North
2016-04-22T18:00:00Z,1461348000,2016,18,0,113.75,113.75,74.42684,-102.72877,1024.5,-15.4,-999.0,yes,yes,no,300234063586960,ICET,YorkU,unknown,North
2016-04-23T00:00:00Z,1461369600,2016,0,0,114.0,114.0,74.42684,-102.72876,1024.2,-7.85,-999.0,yes,yes,no,300234063586960,ICET,YorkU,unknown,North
2016-04-23T06:00:00Z,1461391200,2016,6,0,114.25,114.25,74.42683,-102.72881,1025.1,-13.8,-999.0,yes,yes,no,300234063586960,ICET,YorkU,unknown,North
2016-04-23T12:00:00Z,1461412800,2016,12,0,114.5,114.5,74.42683,-102.72878,1027.6,-17.5,-999.0,yes,yes,no,300234063586960,ICET,YorkU,unknown,North
2016-04-23T18:00:00Z,1461434400,2016,18,0,114.75,114.75,74.42685,-102.72878,1029.4,-13.8,-999.0,yes,yes,no,300234063586960,ICET,YorkU,unknown,North
2016-04-24T00:00:00Z,1461456000,2016,0,0,115.0,115.0,74.42684,-102.72876,1031.2,-6.3,-999.0,yes,yes,no,300234063586960,ICET,YorkU,unknown,North
2016-04-24T06:00:00Z,1461477600,2016,6,0,115.25,115.25,74.42687,-102.7287,1032.3,-13.45,-999.0,yes,yes,no,300234063586960,ICET,YorkU,unknown,North
2016-04-24T12:00:00Z,1461499200,2016,12,0,115.5,115.5,74.42683,-102.72877,1033.5,-20.2,-999.0,yes,yes,no,300234063586960,ICET,YorkU,unknown,North
2016-04-24T18:00:00Z,1461520800,2016,18,0,115.75,115.75,74.42686,-102.72878,1033.0,-15.0,-999.0,yes,yes,no,300234063586960,ICET,YorkU,unknown,North
2016-04-25T00:00:00Z,1461542400,2016,0,0,116.0,116.0,74.42685,-102.72877,1032.7,-6.0,-999.0,yes,yes,no,300234063586960,ICET,YorkU,unknown,North
2016-04-25T06:00:00Z,1461564000,2016,6,0,116.25,116.25,74.42682,-102.72881,1031.6,-13.3,-999.0,yes,yes,no,300234063586960,ICET,YorkU,unknown,North
2016-04-25T12:00:00Z,1461585600,2016,12,0,116.5,116.5,74.42683,-102.72876,1031.3,-19.45,-999.0,yes,yes,no,300234063586960,ICET,YorkU,unknown,North
2016-04-25T18:00:00Z,1461607200,2016,18,0,116.75,116.75,74.42686,-102.72876,1030.0,-14.55,-999.0,yes,yes,no,300234063586960,ICET,YorkU,unknown,North
2016-04-26T00:00:00Z,1461628800,2016,0,0,117.0,117.0,74.42684,-102.72878,1028.7,-5.55,-999.0,yes,yes,no,300234063586960,ICET,YorkU,unknown,North
2016-04-26T06:00:00Z,1461650400,2016,6,0,117.25,117.25,74.42683,-102.72878,1027.8,-13.8,-999.0,yes,yes,no,300234063586960,ICET,YorkU,unknown,North
2016-04-26T12:00:00Z,1461672000,2016,12,0,117.5,117.5,74.42685,-102.72875,1028.1,-21.7,-999.0,yes,yes,no,300234063586960,ICET,YorkU,unknown,North
2016-04-26T18:00:00Z,1461693600,2016,18,0,117.75,117.75,74.42685,-102.72875,1029.5,-16.0,-999.0,yes,yes,no,300234063586960,ICET,YorkU,unknown,North
2016-04-27T00:00:00Z,1461715200,2016,0,0,118.0,118.0,74.42684,-102.7288,1030.9,-8.35,-999.0,yes,yes,no,300234063586960,ICET,YorkU,unknown,North
2016-04-27T06:00:00Z,1461736800,2016,6,0,118.25,118.25,74.42683,-102.72878,1031.0,-15.1,-999.0,yes,yes,no,300234063586960,ICET,YorkU,unknown,North
2016-04-27T12:00:00Z,1461758400,2016,12,0,118.5,118.5,74.42685,-102.72875,1031.2,-18.25,-999.0,yes,yes,no,300234063586960,ICET,YorkU,unknown,North
2016-04-27T18:00:00Z,1461780000,2016,18,0,118.75,118.75,74.42685,-102.72878,1031.6,-14.3,-999.0,yes,yes,no,300234063586960,ICET,YorkU,unknown,North
2016-04-28T00:00:00Z,1461801600,2016,0,0,119.0,119.0,74.42683,-102.72878,1031.5,-5.25,-999.0,yes,yes,no,300234063586960,ICET,YorkU,unknown,North
2016-04-28T06:00:00Z,1461823200,2016,6,0,119.25,119.25,74.42683,-102.72877,1031.1,-12.8,-999.0,yes,yes,no,300234063586960,ICET,YorkU,unknown,North
2016-04-28T12:00:00Z,1461844800,2016,12,0,119.5,119.5,74.42684,-102.72878,1031.7,-19.8,-999.0,yes,yes,no,300234063586960,ICET,YorkU,unknown,North
2016-04-28T18:00:00Z,1461866400,2016,18,0,119.75,119.75,74.42684,-102.7288,1032.4,-15.65,-999.0,yes,yes,no,300234063586960,ICET,YorkU,unknown,North
2016-04-29T00:00:00Z,1461888000,2016,0,0,120.0,120.0,74.42685,-102.72877,1032.4,-4.9,-999.0,yes,yes,no,300234063586960,ICET,YorkU,unknown,North
2016-04-29T06:00:00Z,1461909600,2016,6,0,120.25,120.25,74.42684,-102.72877,1033.0,-12.6,-999.0,yes,yes,no,300234063586960,ICET,YorkU,unknown,North
2016-04-29T12:00:00Z,1461931200,2016,12,0,120.5,120.5,74.42683,-102.72878,1033.3,-20.5,-999.0,yes,yes,no,300234063586960,ICET,YorkU,unknown,North
2016-04-29T18:00:00Z,1461952800,2016,18,0,120.75,120.75,74.42685,-102.72881,1033.5,-16.4,-999.0,yes,yes,no,300234063586960,ICET,YorkU,unknown,North
2016-04-30T00:00:00Z,1461974400,2016,0,0,121.0,121.0,74.42685,-102.72876,1033.1,-6.4,-999.0,yes,yes,no,300234063586960,ICET,YorkU,unknown,North
2016-04-30T06:00:00Z,1461996000,2016,6,0,121.25,121.25,74.42683,-102.72875,1032.7,-12.9,-999.0,yes,yes,no,300234063586960,ICET,YorkU,unknown,North
2016-04-30T12:00:00Z,1462017600,2016,12,0,121.5,121.5,74.42683,-102.72878,1031.7,-20.05,-999.0,yes,yes,no,300234063586960,ICET,YorkU,unknown,North
2016-04-30T18:00:00Z,1462039200,2016,18,0,121.75,121.75,74.42685,-102.72879,1029.5,-15.0,-999.0,yes,yes,no,300234063586960,ICET,YorkU,unknown,North
2016-05-01T00:00:00Z,1462060800,2016,0,0,122.0,122.0,74.42686,-102.72878,1026.2,-4.9,-999.0,yes,yes,no,300234063586960,ICET,YorkU,unknown,North
2016-05-01T06:00:00Z,1462082400,2016,6,0,122.25,122.25,74.42684,-102.72878,1023.2,-10.95,-999.0,yes,yes,no,300234063586960,ICET,YorkU,unknown,North
2016-05-01T12:00:00Z,1462104000,2016,12,0,122.5,122.5,74.42683,-102.72878,1021.0,-16.85,-999.0,yes,yes,no,300234063586960,ICET,YorkU,unknown,North
2016-05-01T18:00:00Z,1462125600,2016,18,0,122.75,122.75,74.42684,-102.72882,1019.5,-12.65,-999.0,yes,yes,no,300234063586960,ICET,YorkU,unknown,North
2016-05-02T00:00:00Z,1462147200,2016,0,0,123.0,123.0,74.42685,-102.72876,1019.2,-3.25,-999.0,yes,yes,no,300234063586960,ICET,YorkU,unknown,North
2016-05-02T06:00:00Z,1462168800,2016,6,0,123.25,123.25,74.42684,-102.72875,1018.3,-10.05,-999.0,yes,yes,no,300234063586960,ICET,YorkU,unknown,North
2016-05-02T12:00:00Z,1462190400,2016,12,0,123.5,123.5,74.42684,-102.72878,1019.1,-16.8,-999.0,yes,yes,no,300234063586960,ICET,YorkU,unknown,North
2016-05-02T18:00:00Z,1462212000,2016,18,0,123.75,123.75,74.42683,-102.72878,1020.5,-12.3,-999.0,yes,yes,no,300234063586960,ICET,YorkU,unknown,North
2016-05-03T00:00:00Z,1462233600,2016,0,0,124.0,124.0,74.42684,-102.72878,1021.3,-2.75,-999.0,yes,yes,no,300234063586960,ICET,YorkU,unknown,North
2016-05-03T06:00:00Z,1462255200,2016,6,0,124.25,124.25,74.42683,-102.72875,1021.2,-9.6,-999.0,yes,yes,no,300234063586960,ICET,YorkU,unknown,North
2016-05-03T12:00:00Z,1462276800,2016,12,0,124.5,124.5,74.42684,-102.72877,1021.5,-16.5,-999.0,yes,yes,no,300234063586960,ICET,YorkU,unknown,North
2016-05-03T18:00:00Z,1462298400,2016,18,0,124.75,124.75,74.42685,-102.72884,1020.8,-11.9,-999.0,yes,yes,no,300234063586960,ICET,YorkU,unknown,North
2016-05-04T00:00:00Z,1462320000,2016,0,0,125.0,125.0,74.42686,-102.72879,1020.5,-2.75,-999.0,yes,yes,no,300234063586960,ICET,YorkU,unknown,North
2016-05-04T06:00:00Z,1462341600,2016,6,0,125.25,125.25,74.42683,-102.72875,1019.6,-10.05,-999.0,yes,yes,no,300234063586960,ICET,YorkU,unknown,North
2016-05-04T12:00:00Z,1462363200,2016,12,0,125.5,125.5,74.42684,-102.72877,1020.0,-16.3,-999.0,yes,yes,no,300234063586960,ICET,YorkU,unknown,North
2016-05-04T18:00:00Z,1462384800,2016,18,0,125.75,125.75,74.42684,-102.72881,1019.8,-10.35,-999.0,yes,yes,no,300234063586960,ICET,YorkU,unknown,North
2016-05-05T00:00:00Z,1462406400,2016,0,0,126.0,126.0,74.42685,-102.72876,1020.8,-1.8,-999.0,yes,yes,no,300234063586960,ICET,YorkU,unknown,North
2016-05-05T06:00:00Z,1462428000,2016,6,0,126.25,126.25,74.42684,-102.72876,1020.5,-7.95,-999.0,yes,yes,no,300234063586960,ICET,YorkU,unknown,North
2016-05-05T12:00:00Z,1462449600,2016,12,0,126.5,126.5,74.42685,-102.72876,1020.7,-12.0,-999.0,yes,yes,no,300234063586960,ICET,YorkU,unknown,North
2016-05-05T18:00:00Z,1462471200,2016,18,0,126.75,126.75,74.42685,-102.72877,1020.9,-6.6,-999.0,yes,yes,no,300234063586960,ICET,YorkU,unknown,North
2016-05-06T00:00:00Z,1462492800,2016,0,0,127.0,127.0,74.42685,-102.72877,1020.6,-0.2,-999.0,yes,yes,no,300234063586960,ICET,YorkU,unknown,North
2016-05-06T06:00:00Z,1462514400,2016,6,0,127.25,127.25,74.42685,-102.72875,1019.3,-5.7,-999.0,yes,yes,no,300234063586960,ICET,YorkU,unknown,North
2016-05-06T12:00:00Z,1462536000,2016,12,0,127.5,127.5,74.42685,-102.72877,1019.4,-8.5,-999.0,yes,yes,no,300234063586960,ICET,YorkU,unknown,North
2016-05-06T18:00:00Z,1462557600,2016,18,0,127.75,127.75,74.42683,-102.72883,1020.1,-3.7,-999.0,yes,yes,no,300234063586960,ICET,YorkU,unknown,North
2016-05-07T00:00:00Z,1462579200,2016,0,0,128.0,128.0,74.42684,-102.72873,1020.8,-1.15,-999.0,yes,yes,no,300234063586960,ICET,YorkU,unknown,North
2016-05-07T06:00:00Z,1462600800,2016,6,0,128.25,128.25,74.42684,-102.72875,1020.4,-4.9,-999.0,yes,yes,no,300234063586960,ICET,YorkU,unknown,North
2016-05-07T12:00:00Z,1462622400,2016,12,0,128.5,128.5,74.42686,-102.7288,1019.8,-5.9,-999.0,yes,yes,no,300234063586960,ICET,YorkU,unknown,North
2016-05-07T18:00:00Z,1462644000,2016,18,0,128.75,128.75,74.42683,-102.72877,1018.7,-2.0,-999.0,yes,yes,no,300234063586960,ICET,YorkU,unknown,North
2016-05-08T00:00:00Z,1462665600,2016,0,0,129.0,129.0,74.42685,-102.72879,1017.9,-0.2,-999.0,yes,yes,no,300234063586960,ICET,YorkU,unknown,North
2016-05-08T06:00:00Z,1462687200,2016,6,0,129.25,129.25,74.42684,-102.72875,1018.0,-3.7,-999.0,yes,yes,no,300234063586960,ICET,YorkU,unknown,North
2016-05-08T12:00:00Z,1462708800,2016,12,0,129.5,129.5,74.42685,-102.72878,1017.7,-5.85,-999.0,yes,yes,no,300234063586960,ICET,YorkU,unknown,North
2016-05-08T18:00:00Z,1462730400,2016,18,0,129.75,129.75,74.42685,-102.72882,1017.6,-1.8,-999.0,yes,yes,no,300234063586960,ICET,YorkU,unknown,North
2016-05-09T00:00:00Z,1462752000,2016,0,0,130.0,130.0,74.42684,-102.72875,1018.1,3.35,-999.0,yes,yes,no,300234063586960,ICET,YorkU,unknown,North
2016-05-09T06:00:00Z,1462773600,2016,6,0,130.25,130.25,74.42684,-102.72873,1019.0,-3.05,-999.0,yes,yes,no,300234063586960,ICET,YorkU,unknown,North
2016-05-09T12:00:00Z,1462795200,2016,12,0,130.5,130.5,74.42685,-102.72879,1020.7,-5.55,-999.0,yes,yes,no,300234063586960,ICET,YorkU,unknown,North
2016-05-09T18:00:00Z,1462816800,2016,18,0,130.75,130.75,74.42686,-102.72877,1022.2,-2.45,-999.0,yes,yes,no,300234063586960,ICET,YorkU,unknown,North
2016-05-10T00:00:00Z,1462838400,2016,0,0,131.0,131.0,74.42685,-102.72882,1022.6,0.45,-999.0,yes,yes,no,300234063586960,ICET,YorkU,unknown,North
2016-05-10T06:00:00Z,1462860000,2016,6,0,131.25,131.25,74.42685,-102.72875,1022.4,-4.05,-999.0,yes,yes,no,300234063586960,ICET,YorkU,unknown,North
2016-05-10T12:00:00Z,1462881600,2016,12,0,131.5,131.5,74.42684,-102.7288,1022.3,-5.95,-999.0,yes,yes,no,300234063586960,ICET,YorkU,unknown,North
2016-05-10T18:00:00Z,1462903200,2016,18,0,131.75,131.75,74.42685,-102.72881,1023.6,-2.0,-999.0,yes,yes,no,300234063586960,ICET,YorkU,unknown,North
2016-05-11T00:00:00Z,1462924800,2016,0,0,132.0,132.0,74.42685,-102.72877,1025.8,2.0,-999.0,yes,yes,no,300234063586960,ICET,YorkU,unknown,North
2016-05-11T06:00:00Z,1462946400,2016,6,0,132.25,132.25,74.42684,-102.72875,1029.2,-4.15,-999.0,yes,yes,no,300234063586960,ICET,YorkU,unknown,North
2016-05-11T12:00:00Z,1462968000,2016,12,0,132.5,132.5,74.42684,-102.72878,1030.8,-7.25,-999.0,yes,yes,no,300234063586960,ICET,YorkU,unknown,North
2016-05-11T18:00:00Z,1462989600,2016,18,0,132.75,132.75,74.42685,-102.72877,1030.7,-3.7,-999.0,yes,yes,no,300234063586960,ICET,YorkU,unknown,North
2016-05-12T00:00:00Z,1463011200,2016,0,0,133.0,133.0,74.42685,-102.72876,1031.4,0.75,-999.0,yes,yes,no,300234063586960,ICET,YorkU,unknown,North
2016-05-12T06:00:00Z,1463032800,2016,6,0,133.25,133.25,74.42684,-102.72875,1030.8,-4.15,-999.0,yes,yes,no,300234063586960,ICET,YorkU,unknown,North
2016-05-12T12:00:00Z,1463054400,2016,12,0,133.5,133.5,74.42684,-102.72877,1031.1,-9.5,-999.0,yes,yes,no,300234063586960,ICET,YorkU,unknown,North
2016-05-12T18:00:00Z,1463076000,2016,18,0,133.75,133.75,74.42685,-102.72877,1030.6,-5.6,-999.0,yes,yes,no,300234063586960,ICET,YorkU,unknown,North
2016-05-13T00:00:00Z,1463097600,2016,0,0,134.0,134.0,74.42686,-102.72877,1029.6,1.9,-999.0,yes,yes,no,300234063586960,ICET,YorkU,unknown,North
2016-05-13T06:00:00Z,1463119200,2016,6,0,134.25,134.25,74.42684,-102.72874,1027.0,-5.8,-999.0,yes,yes,no,300234063586960,ICET,YorkU,unknown,North
2016-05-13T12:00:00Z,1463140800,2016,12,0,134.5,134.5,74.42685,-102.72878,1024.1,-11.1,-999.0,yes,yes,no,300234063586960,ICET,YorkU,unknown,North
2016-05-13T18:00:00Z,1463162400,2016,18,0,134.75,134.75,74.42685,-102.72877,1020.4,-5.35,-999.0,yes,yes,no,300234063586960,ICET,YorkU,unknown,North
2016-05-14T00:00:00Z,1463184000,2016,0,0,135.0,135.0,74.42685,-102.72874,1017.9,-2.2,-999.0,yes,yes,no,300234063586960,ICET,YorkU,unknown,North
2016-05-14T06:00:00Z,1463205600,2016,6,0,135.25,135.25,74.42683,-102.72875,1016.8,-5.25,-999.0,yes,yes,no,300234063586960,ICET,YorkU,unknown,North
2016-05-14T12:00:00Z,1463227200,2016,12,0,135.5,135.5,74.42685,-102.72877,1016.6,-6.7,-999.0,yes,yes,no,300234063586960,ICET,YorkU,unknown,North
2016-05-14T18:00:00Z,1463248800,2016,18,0,135.75,135.75,74.42684,-102.72878,1016.4,-2.35,-999.0,yes,yes,no,300234063586960,ICET,YorkU,unknown,North
2016-05-15T00:00:00Z,1463270400,2016,0,0,136.0,136.0,74.42685,-102.72878,1017.1,0.85,-999.0,yes,yes,no,300234063586960,ICET,YorkU,unknown,North
2016-05-15T06:00:00Z,1463292000,2016,6,0,136.25,136.25,74.42683,-102.72876,1017.0,-2.55,-999.0,yes,yes,no,300234063586960,ICET,YorkU,unknown,North
2016-05-15T12:00:00Z,1463313600,2016,12,0,136.5,136.5,74.42685,-102.72875,1017.9,-4.55,-999.0,yes,yes,no,300234063586960,ICET,YorkU,unknown,North
2016-05-15T18:00:00Z,1463335200,2016,18,0,136.75,136.75,74.42684,-102.72876,1018.9,-1.1,-999.0,yes,yes,no,300234063586960,ICET,YorkU,unknown,North
2016-05-16T00:00:00Z,1463356800,2016,0,0,137.0,137.0,74.42685,-102.72875,1019.6,2.2,-999.0,yes,yes,no,300234063586960,ICET,YorkU,unknown,North
2016-05-16T06:00:00Z,1463378400,2016,6,0,137.25,137.25,74.42684,-102.72875,1019.9,-1.45,-999.0,yes,yes,no,300234063586960,ICET,YorkU,unknown,North
2016-05-16T12:00:00Z,1463400000,2016,12,0,137.5,137.5,74.42683,-102.72876,1020.8,-5.25,-999.0,yes,yes,no,300234063586960,ICET,YorkU,unknown,North
2016-05-16T18:00:00Z,1463421600,2016,18,0,137.75,137.75,74.42684,-102.72877,1021.0,-0.85,-999.0,yes,yes,no,300234063586960,ICET,YorkU,unknown,North
2016-05-17T00:00:00Z,1463443200,2016,0,0,138.0,138.0,74.42684,-102.72877,1021.4,2.25,-999.0,yes,yes,no,300234063586960,ICET,YorkU,unknown,North
2016-05-17T06:00:00Z,1463464800,2016,6,0,138.25,138.25,74.42683,-102.72872,1020.6,-2.35,-999.0,yes,yes,no,300234063586960,ICET,YorkU,unknown,North
2016-05-17T12:00:00Z,1463486400,2016,12,0,138.5,138.5,74.42684,-102.72875,1020.0,-5.3,-999.0,yes,yes,no,300234063586960,ICET,YorkU,unknown,North
2016-05-17T18:00:00Z,1463508000,2016,18,0,138.75,138.75,74.42685,-102.72875,1019.3,-3.15,-999.0,yes,yes,no,300234063586960,ICET,YorkU,unknown,North
2016-05-18T00:00:00Z,1463529600,2016,0,0,139.0,139.0,74.42684,-102.72875,1019.6,-4.4,-999.0,yes,yes,no,300234063586960,ICET,YorkU,unknown,North
2016-05-18T06:00:00Z,1463551200,2016,6,0,139.25,139.25,74.42683,-102.72874,1019.4,-5.35,-999.0,yes,yes,no,300234063586960,ICET,YorkU,unknown,North
2016-05-18T12:00:00Z,1463572800,2016,12,0,139.5,139.5,74.42683,-102.72875,1018.9,-6.9,-999.0,yes,yes,no,300234063586960,ICET,YorkU,unknown,North
2016-05-18T18:00:00Z,1463594400,2016,18,0,139.75,139.75,74.42685,-102.72873,1017.4,-5.15,-999.0,yes,yes,no,300234063586960,ICET,YorkU,unknown,North
2016-05-19T00:00:00Z,1463616000,2016,0,0,140.0,140.0,74.42683,-102.72875,1017.5,-3.2,-999.0,yes,yes,no,300234063586960,ICET,YorkU,unknown,North
2016-05-19T06:00:00Z,1463637600,2016,6,0,140.25,140.25,74.42684,-102.72871,1017.2,-4.35,-999.0,yes,yes,no,300234063586960,ICET,YorkU,unknown,North
2016-05-19T12:00:00Z,1463659200,2016,12,0,140.5,140.5,74.42684,-102.72874,1015.0,-5.4,-999.0,yes,yes,no,300234063586960,ICET,YorkU,unknown,North
2016-05-19T18:00:00Z,1463680800,2016,18,0,140.75,140.75,74.42684,-102.72873,1014.1,-2.9,-999.0,yes,yes,no,300234063586960,ICET,YorkU,unknown,North
2016-05-20T00:00:00Z,1463702400,2016,0,0,141.0,141.0,74.42683,-102.72871,1014.6,0.25,-999.0,yes,yes,no,300234063586960,ICET,YorkU,unknown,North